EA2DK Weather Reports


time (UTC)temp
C
wind
direction
speed
KPH
gust
KPH
rain 1hr
cm
rain 24hr
cm
rain mn
cm
humidity
%
barometer
mb
20260506163004 15 238 3.2 11.3 0.00 0.00 0.00 57 1017.4
20260506161505 15 243 8.0 12.9 0.00 0.00 0.00 55 1017.4
20260506154503 15 267 8.0 19.3 0.00 0.00 0.00 54 1017.6
20260506150005 15 273 8.0 16.1 0.00 0.00 0.00 58 1017.7
20260506144504 15 223 8.0 16.1 0.00 0.00 0.00 57 1017.7
20260506143005 15 264 4.8 14.5 0.00 0.00 0.00 57 1017.9
20260506141504 14 213 6.4 11.3 0.00 0.00 0.00 58 1017.9
20260506140004 14 272 4.8 14.5 0.00 0.00 0.00 59 1018.1
20260506134504 13 220 3.2 16.1 0.00 0.00 0.00 60 1018.1
20260506131504 13 244 8.0 22.5 0.00 0.00 0.00 61 1018.0
20260506130005 13 281 11.3 22.5 0.00 0.00 0.00 61 1017.8
20260506124504 13 220 11.3 24.1 0.00 0.00 0.00 62 1017.7
20260506123005 13 220 8.0 19.3 0.00 0.00 0.00 62 1017.7
20260506121504 13 202 9.7 25.7 0.00 0.00 0.00 62 1017.7
20260506120005 14 269 14.5 27.4 0.00 0.00 0.00 60 1017.7
20260506114505 14 223 8.0 19.3 0.00 0.00 0.00 59 1017.7
20260506113004 14 199 8.0 19.3 0.00 0.00 0.00 59 1017.7
20260506111504 15 217 4.8 19.3 0.00 0.00 0.00 58 1017.6
20260506110004 15 185 8.0 19.3 0.00 0.00 0.00 57 1017.4
20260506104504 15 234 6.4 19.3 0.00 0.00 0.00 56 1017.4
20260506103004 15 214 11.3 20.9 0.00 0.00 0.00 56 1017.4
20260506101504 14 183 8.0 16.1 0.00 0.00 0.00 58 1017.5
20260506100005 13 210 4.8 19.3 0.00 0.00 0.00 59 1017.5
20260506094504 13 178 12.9 19.3 0.00 0.00 0.00 58 1017.5
20260506093004 13 176 11.3 19.3 0.00 0.00 0.00 59 1017.5
20260506091504 13 210 8.0 20.9 0.00 0.00 0.00 59 1017.5
20260506084504 13 170 4.8 9.7 0.00 0.00 0.00 59 1017.1
20260506083004 12 202 8.0 22.5 0.00 0.00 0.00 59 1017.1
20260506081504 12 185 8.0 16.1 0.00 0.00 0.00 59 1017.1
20260506073004 11 0 0.0 0.0 0.00 0.00 0.00 65 1016.8
20260506071504 11 1 0.0 4.8 0.00 0.00 0.00 65 1016.8
20260506061505 11 172 4.8 9.7 0.00 0.00 0.00 65 1016.5
20260506044504 11 188 8.0 12.9 0.00 0.00 0.00 64 1016.1
20260506043004 11 159 8.0 9.7 0.00 0.00 0.00 65 1016.2
20260506041504 11 187 3.2 4.8 0.00 0.00 0.00 65 1016.1
20260506033005 10 165 1.6 8.0 0.00 0.00 0.00 65 1016.2
20260506031504 10 171 0.0 4.8 0.00 0.00 0.00 65 1016.2
20260506030004 10 171 3.2 4.8 0.00 0.00 0.00 65 1016.2
20260506024504 10 171 3.2 4.8 0.00 0.00 0.00 65 1016.2
20260506023004 10 173 1.6 3.2 0.00 0.00 0.00 65 1016.3
20260506020004 10 150 3.2 4.8 0.00 0.00 0.00 64 1016.3
20260506014504 10 150 4.8 9.7 0.00 0.00 0.00 64 1016.4
20260506011504 10 176 3.2 9.7 0.00 0.00 0.00 65 1016.5
20260506010004 10 181 4.8 9.7 0.00 0.00 0.00 65 1016.5
20260506004505 10 169 3.2 4.8 0.00 0.00 0.00 65 1016.7
20260506003004 10 169 3.2 4.8 0.00 0.00 0.00 65 1017.0
20260506001504 10 195 1.6 4.8 0.00 0.00 0.00 64 1017.1
20260506000004 10 195 3.2 4.8 0.00 0.00 0.00 64 1016.9
20260505234504 10 174 3.2 4.8 0.00 0.00 0.00 64 1017.1
20260505233005 10 173 3.2 4.8 0.00 0.00 0.00 63 1017.2
20260505231505 11 173 3.2 4.8 0.00 0.00 0.00 62 1017.3
20260505230004 11 174 3.2 8.0 0.00 0.00 0.00 62 1017.1
20260505224505 11 167 4.8 8.0 0.00 0.00 0.00 63 1017.0
20260505223005 11 174 4.8 11.3 0.00 0.00 0.00 63 1017.1
20260505221504 11 199 4.8 8.0 0.00 0.00 0.00 63 1017.3
20260505220004 11 192 3.2 4.8 0.00 0.00 0.00 63 1017.4
20260505211504 11 171 3.2 4.8 0.00 0.00 0.00 63 1017.6
20260505210004 11 168 4.8 4.8 0.00 0.00 0.00 60 1017.7
20260505204504 11 169 3.2 4.8 0.00 0.00 0.00 60 1017.5
20260505203004 12 0 0.0 0.0 0.00 0.00 0.00 60 1017.5
20260505201504 12 0 0.0 0.0 0.00 0.00 0.00 60 1017.4
20260505200004 12 0 0.0 14.5 0.00 0.00 0.00 60 1017.4
20260505194503 12 221 12.9 14.5 0.00 0.00 0.00 60 1017.3
20260505193004 12 195 9.7 19.3 0.00 0.00 0.00 60 1017.2
20260505191504 13 0 0.0 4.8 0.00 0.00 0.00 61 1017.2
20260505190004 13 183 4.8 11.3 0.00 0.00 0.00 61 1017.1
20260505184504 13 198 3.2 11.3 0.00 0.00 0.00 62 1016.9
20260505183004 13 187 3.2 8.0 0.00 0.00 0.00 62 1016.9
20260505181504 13 188 4.8 8.0 0.00 0.00 0.00 59 1016.8
20260505180004 13 0 0.0 0.0 0.00 0.00 0.00 59 1016.9
20260505174504 13 0 0.0 0.0 0.00 0.00 0.00 59 1016.8
20260505173005 13 0 0.0 0.0 0.00 0.00 0.00 59 1016.8
20260505171506 13 0 0.0 0.0 0.00 0.00 0.00 59 1016.9
20260505164504 13 192 4.8 9.7 0.00 0.00 0.00 59 1017.1